Regional Weather Roundup
Issued by NWS

Home | Current Version | Previous Version | Graphics & Text | Print | Product List | Glossary On
Versions: 1 2 3 4 5 6 7 8 9 10 11 12 13 14 15 16 17 18 19 20 21 22 23 24 25 26 27 28 29 30 31 32 33 34 35 36 37 38 39 40 41 42 43 44 45 46 47 48 49 50
000
ASUS43 KOAX 261610
RWRNE

WEATHER ROUNDUP FOR NEBRASKA
NATIONAL WEATHER SERVICE OMAHA NE
1100 AM CDT WED APR 26 2017

NOTES: SATELLITE DATA IS BEING USED TO AUGMENT CLOUD COVER ABOVE
       12000 FEET.
       "FAIR" INDICATES FEW OR NO CLOUDS BELOW 12,000 FEET WITH NO
       SIGNIFICANT WEATHER AND/OR OBSTRUCTIONS TO VISIBILITY.

  * THESE STATIONS DO NOT REPORT WEATHER SUCH AS RAIN...SNOW OR FOG.

NEZ001>004-019>022-054>056-261700-
NEBRASKA PANHANDLE

CITY           SKY/WX    TMP DP  RH WIND       PRES   REMARKS
SCOTTSBLUFF    SUNNY     41  29  62 VRB3      29.82F
ALLIANCE       CLOUDY    32  27  81 N15       29.81F WCI  22
CHADRON        CLOUDY    32  26  78 VRB3      29.86F
KIMBALL        SUNNY     45  29  53 NW12G18   29.80F
SIDNEY         SUNNY     42  31  64 N13       29.81F
$$

NEZ057>060-069>072-079>082-261700-
SOUTHWEST NEBRASKA

CITY           SKY/WX    TMP DP  RH WIND       PRES   REMARKS
NORTH PLATTE   CLOUDY    37  28  70 NW22G29   29.80S WCI  26
IMPERIAL       CLOUDY    37  27  67 N22G29    29.82S WCI  26
LEXINGTON      CLOUDY    39  30  72 NW22G30   29.78R WCI  28
MCCOOK         CLOUDY    41  29  62 N20G26    29.80S
OGALLALA       PTSUNNY   40  29  64 NW21      29.81F WCI  30
$$

NEZ005>010-023>029-035>040-094-261700-
NORTH CENTRAL NEBRASKA

CITY           SKY/WX    TMP DP  RH WIND       PRES   REMARKS
VALENTINE      CLOUDY    34  25  69 NW20G31   29.80S WCI  23
AINSWORTH      CLOUDY    34  29  85 NW23      29.77S WCI  21
BROKEN BOW     CLOUDY    36  28  73 NW21G29   29.76R WCI  25
O`NEILL        CLOUDY    35  29  79 NW28      29.75R WCI  22
ORD            CLOUDY    37  30  75 NW20G28   29.74R WCI  27
THEDFORD       CLOUDY    34  29  80 NW22      29.79F WCI  23
$$

NEZ041-046>049-061>064-073>077-083>087-261700-
SOUTH CENTRAL NEBRASKA

CITY           SKY/WX    TMP DP  RH WIND       PRES   REMARKS
GRAND ISLAND   CLOUDY    39  32  76 N21G31    29.73F WCI  29
AURORA         CLOUDY    39  32  76 N22G28    29.72S WCI  28
HASTINGS       CLOUDY    39  30  70 N22G31    29.74S WCI  29
HEBRON         CLOUDY    40  31  68 N15G22    29.74R WCI  32
HOLDREGE       CLOUDY    38  29  70 NW18G26   29.75F WCI  28
KEARNEY *      CLOUDY    39  28  65 NW18G29   29.75S WCI  30
YORK           CLOUDY    39  32  75 N16G26    29.71S WCI  30
$$

NEZ011>018-030>034-042>045-261700-
NORTHEAST NEBRASKA

CITY           SKY/WX    TMP DP  RH WIND       PRES   REMARKS
NORFOLK        CLOUDY    36  29  75 NW23G32   29.67R WCI  24
ALBION         CLOUDY    38  31  77 NW22G31   29.71R WCI  28
BLAIR          CLOUDY    38  33  82 NW21G28   29.67R WCI  27
FREMONT        CLOUDY    38  32  78 NW17G24   29.70R WCI  29
TEKAMAH        CLOUDY    39  32  76 NW23G29   29.67S WCI  28
WAYNE          CLOUDY    35  33  94 NW20G28   29.68R WCI  24
$$

NEZ050>053-065>068-078-088>093-261700-
SOUTHEAST NEBRASKA

CITY           SKY/WX    TMP DP  RH WIND       PRES   REMARKS
LINCOLN        CLOUDY    41  31  67 NW15      29.72R
OMAHA EPPLEY   CLOUDY    40  33  76 NW18G25   29.68R WCI  31
BEATRICE       CLOUDY    39  34  80 NW16      29.72R WCI  31
FALLS CITY     CLOUDY    43  33  68 NW16G29   29.66R
NEBRASKA CITY  CLOUDY    41  30  64 N22       29.67F
PLATTSMOUTH    CLOUDY    40  31  72 NW15G22   29.68R WCI  31
$$

NEZ044-045-051>053-067-261700-
OMAHA AREA

CITY           SKY/WX    TMP DP  RH WIND       PRES   REMARKS
OMAHA EPPLEY   CLOUDY    40  33  76 NW18G25   29.68R WCI  31
BLAIR          CLOUDY    38  33  82 NW21G28   29.67R WCI  27
FREMONT        CLOUDY    38  32  78 NW17G24   29.70R WCI  29
MILLARD        CLOUDY    41  34  75 NW13G22   29.70R
OFFUTT AFB     CLOUDY    40  33  75 NW15G21   29.69R WCI  31
PLATTSMOUTH    CLOUDY    40  31  72 NW15G22   29.68R WCI  31
WAHOO          CLOUDY    39  31  71 NW18G24   29.69S WCI  30
$$




USA.gov is the U.S. government's official web portal to all federal, state and local government web resources and services.